Tracking 29892 objects as of 21-Nov-2024
HD Live streaming from Space Station
objects crossing your sky now

THORAD AGENA D DEB

Track THORAD AGENA D DEB now!
10-day predictions


NORAD ID: 4948
Int'l Code: 1970-025GJ
Perigee: 923.4 km
Apogee: 1,229.0 km
Inclination: 99.4 °
Period: 106.6 minutes
Semi major axis: 7447 km
RCS: 0.0194 m2 (small)
Launch date: April 8, 1970
Source: United States (US)
Launch site: AIR FORCE WESTERN TEST RANGE (AFWTR)

Note: This is SATELLITE DEBRIS
Your satellite tracking list
Your tracking list is empty




NASA's NSSDC Master Catalog

Two Line Element Set (TLE):
1 04948U 70025GJ  24324.88265873  .00001565  00000-0  21832-2 0  9996
2 04948  99.4451 190.0098 0205157 145.1212 344.1074 13.50871615660813
Source of the keplerian elements: AFSPC